Weather History for Big Piney, WY

Change the Weather History Date:

Friday, November 23, 2012

  Actual Average Record
Temperature  
Mean Temperature 27 °F 20 °F  
Max Temperature 43 °F 33 °F 54 °F (2005)
Min Temperature 10 °F 7 °F -17 °F (2003)
Degree Days  
Heating Degree Days 38 45  
Month to date heating degree days 779 905  
Since 1 July heating degree days 1909 2485  
Cooling Degree Days 0 0  
Month to date cooling degree days 0 0  
Year to date cooling degree days 67 35  
Moisture  
Dew Point 10 °F    
Average Humidity 54    
Maximum Humidity 84    
Minimum Humidity 24    
Precipitation  
Precipitation 0.00 in 0.01 in 0.25 in (2002)
Month to date precipitation 0.15 0.17  
Year to date precipitation 2.65 6.14  
Sea Level Pressure  
Sea Level Pressure 30.53 in    
Wind  
Wind Speed 2 mph (West)    
Max Wind Speed 10 mph    
Max Gust Speed 12 mph    
Visibility 10 miles    
Events      
T = Trace of Precipitation, MM = Missing Value Source: NWS Daily Summary

Daily Weather History Graph

Daily Weather History Graph

Search for Another Location

Airport:

Trip Planner

Search our weather history database for the weather conditions in past years. The results will help you decide how hot, cold, wet, or windy it might be!

Date:

Astronomy

Nov. 23, 2012 Rise Set
Actual Time 7:22 AM MST 4:51 PM MST
Civil Twilight 6:51 AM MST 5:22 PM MST
Nautical Twilight 6:16 AM MST 5:57 PM MST
Astronomical Twilight 5:42 AM MST 6:30 PM MST
Moon 2:12 PM MST (11/23) 2:39 AM MST (11/23)
Length of Visible Light 10h 31m
Length of Day
9h 29m
Waxing Gibbous, 80% of the Moon is Illuminated
Nov 23
Waxing Gibbous
Nov 28
Full
Dec 6
Last Quarter
Dec 13
New
Dec 19
First Quarter

Hourly Weather History & Observations

Time (MST) Temp. Windchill Dew Point Humidity Pressure Visibility Wind Dir Wind Speed Gust Speed Precip Events Conditions
12:53 AM 16.0 °F - 10.0 °F 77% 30.55 in 10.0 mi Calm Calm - N/A   Clear
1:53 AM 16.0 °F - 9.0 °F 74% 30.55 in 10.0 mi Calm Calm - N/A   Clear
2:53 AM 15.1 °F 9.4 °F 9.0 °F 77% 30.58 in 10.0 mi West 3.5 mph - N/A   Clear
3:53 AM 10.9 °F - 5.0 °F 77% 30.60 in 10.0 mi Calm Calm - N/A   Clear
4:53 AM 12.9 °F - 8.1 °F 81% 30.61 in 10.0 mi Calm Calm - N/A   Clear
5:53 AM 10.9 °F 1.4 °F 6.1 °F 81% 30.62 in 10.0 mi NE 5.8 mph - N/A   Clear
6:53 AM 12.0 °F 4.1 °F 7.0 °F 80% 30.63 in 10.0 mi ENE 4.6 mph - N/A   Clear
7:53 AM 10.9 °F - 6.1 °F 81% 30.65 in 10.0 mi Calm Calm - N/A   Clear
8:53 AM 19.0 °F - 10.9 °F 71% 30.65 in 10.0 mi Calm Calm - N/A   Clear
9:53 AM 24.1 °F 19.7 °F 14.0 °F 65% 30.64 in 10.0 mi SSW 3.5 mph - N/A   Clear
10:53 AM 30.0 °F 26.5 °F 14.0 °F 51% 30.60 in 10.0 mi West 3.5 mph - N/A   Clear
11:53 AM 36.0 °F 33.3 °F 12.9 °F 39% 30.54 in 10.0 mi Variable 3.5 mph - N/A   Clear
12:53 PM 39.0 °F 35.7 °F 8.1 °F 28% 30.50 in 10.0 mi SW 4.6 mph - N/A   Clear
1:53 PM 42.1 °F - 8.1 °F 25% 30.46 in 10.0 mi Calm Calm - N/A   Clear
2:53 PM 42.1 °F - 8.1 °F 25% 30.44 in 10.0 mi Calm Calm - N/A   Clear
3:53 PM 41.0 °F 39.0 °F 8.1 °F 26% 30.46 in 10.0 mi South 3.5 mph - N/A   Clear
4:53 PM 36.0 °F 33.3 °F 9.0 °F 33% 30.46 in 10.0 mi SW 3.5 mph - N/A   Clear
5:53 PM 28.9 °F - 8.1 °F 41% 30.50 in 10.0 mi Calm Calm - N/A   Clear
6:53 PM 26.1 °F 21.9 °F 10.0 °F 51% 30.51 in 10.0 mi East 3.5 mph - N/A   Clear
7:53 PM 19.0 °F 12.3 °F 12.0 °F 74% 30.54 in 10.0 mi NNW 4.6 mph - N/A   Clear
8:53 PM 19.9 °F 11.1 °F 12.9 °F 74% 30.48 in 10.0 mi East 6.9 mph - N/A   Clear
9:53 PM 17.1 °F 10.0 °F 10.9 °F 77% 30.46 in 10.0 mi North 4.6 mph - N/A   Clear
10:53 PM 19.0 °F 13.9 °F 12.0 °F 74% 30.40 in 10.0 mi West 3.5 mph - N/A   Clear
11:53 PM 19.0 °F - 12.0 °F 74% 30.36 in 10.0 mi Calm Calm - N/A   Clear